Weather History for Molokai, HI

Change the Weather History Date:

Wednesday, December 5, 2012

  Actual Average Record
Temperature  
Mean Temperature 76 °F -  
Max Temperature 80 °F 80 °F 86 °F (1980)
Min Temperature 71 °F 66 °F 59 °F (1979)
Cooling Degree Days 10    
Growing Degree Days 26 (Base 50)    
Moisture  
Dew Point 69 °F    
Average Humidity 79    
Maximum Humidity 94    
Minimum Humidity 65    
Precipitation  
Precipitation 0.00 in - - ()
Sea Level Pressure  
Sea Level Pressure 30.06 in    
Wind  
Wind Speed 5 mph (North)    
Max Wind Speed 9 mph    
Max Gust Speed -    
Visibility 10 miles    
Events      
Averages and records for this station are not official NWS values.
T = Trace of Precipitation, MM = Missing Value Source: NWS Daily Summary

Daily Weather History Graph

Daily Weather History Graph

Search for Another Location

Airport:

Trip Planner

Search our weather history database for the weather conditions in past years. The results will help you decide how hot, cold, wet, or windy it might be!

Date:

Astronomy

Dec. 05, 2012 Rise Set
Actual Time 6:52 AM HST 5:46 PM HST
Civil Twilight 6:28 AM HST 6:10 PM HST
Nautical Twilight 6:00 AM HST 6:38 PM HST
Astronomical Twilight 5:33 AM HST 7:05 PM HST
Moon No Moon Rise 11:56 AM HST (12/5)
Length of Visible Light 11h 42m
Length of Day
10h 54m
Waning Gibbous, 58% of the Moon is Illuminated
Dec 5
Waning Gibbous
Dec 6
Last Quarter
Dec 12
New
Dec 19
First Quarter
Dec 28
Full

Hourly Weather History & Observations

Time (HST) Temp. Heat Index Dew Point Humidity Pressure Visibility Wind Dir Wind Speed Gust Speed Precip Events Conditions
12:54 AM 73.0 °F - 69.1 °F 87% 30.09 in 10.0 mi NW 5.8 mph - N/A   Scattered Clouds
1:54 AM 73.0 °F - 69.1 °F 87% 30.07 in 10.0 mi WNW 4.6 mph - N/A   Clear
2:54 AM 72.0 °F - 69.1 °F 91% 30.06 in 9.0 mi Calm Calm - 0.00 in   Mostly Cloudy
4:52 AM 73.4 °F - 69.8 °F 88% 30.06 in 9.0 mi WNW 4.6 mph - N/A   Mostly Cloudy
4:54 AM 73.0 °F - 70.0 °F 90% 30.07 in 9.0 mi NW 3.5 mph - N/A   Mostly Cloudy
5:13 AM 71.6 °F - 69.8 °F 94% 30.06 in 9.0 mi NW 4.6 mph - N/A   Scattered Clouds
5:54 AM 71.1 °F - 68.0 °F 90% 30.09 in 10.0 mi NW 4.6 mph - N/A   Scattered Clouds
6:54 AM 72.0 °F - 68.0 °F 87% 30.10 in 10.0 mi NNW 4.6 mph - N/A   Mostly Cloudy
7:54 AM 73.0 °F - 69.1 °F 87% 30.11 in 10.0 mi Calm Calm - N/A   Scattered Clouds
8:54 AM 77.0 °F - 70.0 °F 79% 30.12 in 10.0 mi Calm Calm - N/A   Clear
9:54 AM 78.1 °F - 69.1 °F 74% 30.11 in 10.0 mi NE 4.6 mph - N/A   Clear
10:54 AM 79.0 °F - 69.1 °F 72% 30.11 in 10.0 mi SW 4.6 mph - N/A   Scattered Clouds
11:07 AM 80.6 °F 83.2 °F 68.0 °F 65% 30.09 in 10.0 mi North 6.9 mph - N/A   Mostly Cloudy
11:17 AM 78.8 °F - 69.8 °F 74% 30.09 in 10.0 mi North 9.2 mph - N/A   Scattered Clouds
11:54 AM 78.1 °F - 70.0 °F 76% 30.10 in 10.0 mi North 8.1 mph - N/A   Scattered Clouds
12:03 PM 78.8 °F - 69.8 °F 74% 30.08 in 10.0 mi North 8.1 mph - N/A   Scattered Clouds
12:54 PM 80.1 °F 82.9 °F 69.1 °F 69% 30.05 in 10.0 mi ENE 8.1 mph - N/A   Scattered Clouds
1:54 PM 78.1 °F - 69.1 °F 74% 30.03 in 10.0 mi SSE 6.9 mph - N/A   Mostly Cloudy
2:15 PM 78.8 °F - 68.0 °F 69% 30.02 in 10.0 mi SE 6.9 mph - N/A   Mostly Cloudy
2:45 PM 78.8 °F - 69.8 °F 74% 30.02 in 10.0 mi SSE 5.8 mph - N/A   Mostly Cloudy
2:54 PM 77.0 °F - 69.1 °F 76% 30.02 in 10.0 mi SSE 4.6 mph - N/A   Scattered Clouds
3:54 PM 79.0 °F - 69.1 °F 72% 30.02 in 10.0 mi North 8.1 mph - N/A   Scattered Clouds
4:54 PM 77.0 °F - 69.1 °F 76% 30.05 in 10.0 mi North 3.5 mph - N/A   Scattered Clouds
5:54 PM 75.9 °F - 69.1 °F 79% 30.04 in 10.0 mi East 3.5 mph - N/A   Clear
6:54 PM 75.0 °F - 69.1 °F 82% 30.05 in 10.0 mi East 3.5 mph - N/A   Clear
7:54 PM 75.0 °F - 66.0 °F 73% 30.05 in 10.0 mi NNE 3.5 mph - N/A   Clear
8:54 PM 73.0 °F - 64.9 °F 76% 30.05 in 10.0 mi ESE 4.6 mph - N/A   Clear
9:54 PM 73.9 °F - 66.0 °F 76% 30.04 in 10.0 mi NNW 9.2 mph - N/A   Clear
10:54 PM 72.0 °F - 66.0 °F 81% 30.03 in 10.0 mi SW 4.6 mph - N/A   Clear
11:54 PM 72.0 °F - 64.9 °F 78% 30.02 in 10.0 mi NW 8.1 mph - N/A   Clear